星链-6363 (STARLINK-6363 )

导读

STARLINK-6363是美国SpaceX星链互联网卫星星座中的一员,于2023年7月16日发射入轨,属于星链项目批量部署的低轨通信卫星。它运行在近地轨道,主要为全球提供高速低延迟宽带互联网服务,尤其服务偏远地区等网络覆盖不足区域,也扩充了星链星座的网络容量与覆盖范围。

基本信息
目录编号:
57375
目录名称:
STARLINK-6363
国际标识:
2023-099AZ
轨道中心:
EARTH
卫星名称:
星链-6363
卫星全名:
星链-6363 (STARLINK-6363 )
卫星状态:
在轨 (已飞行1064 天)
发射日期:
2023-07-16 UTC
国别 :
美国 (US)
星等 :
--
轨道信息
数据来源 国际轨道数据
星历时间: 2026-06-12T08:29:41+0800
2天前
查看轨道信息
半长轴: 6861.189km
偏心率: 0.00013
轨道倾角: 43.001°
近地点辐角 268.613°
升交点赤经 69.140°
平近点角 91.457°
近地点: 482.16km
远地点: 483.944km
周期: 94.267分钟
每日圈数: 15.275791
详细信息
固有亮度:
5
最大亮度:
2.5
卫星平台:
Starlink v1.5
覆盖范围:
全球
运营商:
太空探索技术公司
运营商所在国:
美国
制造商(研发单位):
太空探索技术公司
制造商所在国:
美国
使用方式:
暂无
卫星简介
星链(Starlink)计划是由太空探索技术公司(SpaceX)提出的一个巨型低轨卫星互联网星座项目,计划在2019年至2024年间在太空搭建由约1.2万颗卫星组成的“星链”网络,其中1584颗将部署在地球上空550千米处的近地轨道,并从2020年开始工作。该卫星仍在工作。
2D轨道图
3D轨道图
轨道高度分析图
轨道倾角分析图
轨道综合分析图
查看轨道综合分析图